Retour au catalogue

STARLINK-4111

ActifCommunicationsVLEO
NORAD 53159·PAYLOAD·🇺🇸 United States

Lancé Jul 17, 2022 depuis Cape Canaveral Space Force Station

Loading…

Prochains Passages (prochaines 24 heures)

TLE

FraisSource: CelesTrak SupGP

Époque: Sep 14, 2026, 21:02 UTC

1 53159C 22083AD  26257.87687500  .00028982  00000+0  82955-3 0  2578
2 53159  53.1611  30.0675 0001151  77.2541 174.8941 15.35371178    13

Suivez STARLINK-4111 en temps réel avec AllMySat

Download on the App Store